Location: Oberwangen
(47.4286°N, 8.9679°E)
Time: 22:36:36
(UTC+00:00)

BREEZE-M DEB (TANK) - Pass Details

Date: 20 June 2021
Orbit: 320 x 12038 km, 49.6° (Epoch: 23 July)

Event Time Altitude Azimuth Distance (km) Brightness Sun altitude
Rises 22:52:31 0° 272° (W) 2,379 5.5 -18.7°
Reaches altitude 10° 22:53:55 10° 275° (W) 1,736 4.8 -18.8°
Maximum altitude 22:57:21 71° 1° (N) 883 3.2 -18.8°
Drops below altitude 10° 23:07:41 10° 86° (E) 4,993 7.0 -19.0°
Sets 23:14:51 0° 89° (E) 7,733 7.9 -19.1°
